Location: Unspecified
(0.0000°N, 0.0000°E)
Time: 09:37:13
(UTC+00:00)

DMSP B5D2-3 - Visible Passes

Search period start: 05 June 2023 00:00
Search period end: 15 June 2023 00:00
Orbit: 818 x 838 km, 98.7° (Epoch: 04 June)

Date Brightness Start Highest point End Pass type
(mag) Time Alt. Az. Time Alt. Az. Time Alt. Az.
05 Jun 6.7 18:18:58 10° N 18:23:59 42° WNW 18:29:03 10° SSW visible
06 Jun 6.9 05:20:01 10° SE 05:25:01 38° ENE 05:29:58 10° N visible
07 Jun 7.8 05:02:33 10° SE 05:06:47 24° ENE 05:10:58 10° NNE visible
08 Jun 8.3 04:45:48 10° ESE 04:48:33 14° ENE 04:51:18 10° NE visible
08 Jun 8.5 19:07:15 10° NW 19:09:14 12° WNW 19:11:14 10° W visible
09 Jun 8.0 18:47:08 10° NNW 18:51:01 20° WNW 18:54:55 10° SW visible
10 Jun 7.2 18:28:01 10° NNW 18:32:47 33° WNW 18:37:36 10° SW visible
11 Jun 6.4 05:28:37 10° SSE 05:33:49 49° ENE 05:38:58 10° N visible
12 Jun 7.4 05:10:56 10° SE 05:15:34 30° ENE 05:20:11 10° NNE visible
13 Jun 8.1 04:53:45 10° ESE 04:57:20 18° ENE 05:00:54 10° NE visible
14 Jun 8.6 04:38:15 10° E 04:39:07 10° ENE 04:39:59 10° ENE visible
14 Jun 8.2 18:56:35 10° NW 18:59:48 16° WNW 19:03:01 10° WSW visible
